When you browse on this site, cookies collect data to enhance your experience and personalize the content and advertising you see.
Visit our Privacy Policy to learn more. By continuing to use the site, you agree to this use of cookies and data.
  • In Netherlands
  • List of Countries
  • For 7 days
  • Water Temperature
  • Satellite Maps
  • Weather Map
  • Weather Widgets
  • user-avatar
    Login

    Hourly Weather Strizhi

    Today, 19 May, Sunday

    Time Temperature Precipitation Wind Pressure Humidity
    00:00 +17°C° 0 mm 5 mps 753 mmHg 58%
    01:00 +16°C° 0 mm 5 mps 753 mmHg 57%
    02:00 +16°C° 0 mm 5 mps 752 mmHg 55%
    03:00 +15°C° 0 mm 5 mps 752 mmHg 49%
    04:00 +15°C° 0 mm 5 mps 752 mmHg 52%
    05:00 +15°C° 0 mm 5 mps 752 mmHg 55%
    06:00 +15°C° 0 mm 5 mps 752 mmHg 58%
    07:00 +17°C° 0 mm 5 mps 753 mmHg 55%
    08:00 +19°C° 0 mm 5 mps 753 mmHg 52%
    09:00 +21°C° 0 mm 6 mps 753 mmHg 47%
    10:00 +23°C° 0 mm 6 mps 753 mmHg 47%
    11:00 +25°C° 0 mm 5 mps 753 mmHg 46%
    12:00 +26°C° 0 mm 5 mps 753 mmHg 45%
    13:00 +26°C° 0 mm 5 mps 753 mmHg 44%
    14:00 +26°C° 0 mm 5 mps 753 mmHg 43%
    15:00 +26°C° 0 mm 5 mps 753 mmHg 43%
    16:00 +26°C° 0 mm 4 mps 753 mmHg 46%
    17:00 +25°C° 0 mm 4 mps 753 mmHg 49%
    18:00 +25°C° 0 mm 3 mps 753 mmHg 52%
    19:00 +22°C° 0 mm 3 mps 754 mmHg 53%
    20:00 +20°C° 0 mm 3 mps 754 mmHg 54%
    21:00 +18°C° 0 mm 3 mps 754 mmHg 55%
    22:00 +18°C° 0 mm 3 mps 754 mmHg 58%
    23:00 +17°C° 0 mm 4 mps 755 mmHg 61%

    Tomorrow, 20 May, Monday

    Time Temperature Precipitation Wind Pressure Humidity
    00:00 +15°C° 0 mm 4 mps 755 mmHg 63%
    01:00 +15°C° 0 mm 4 mps 755 mmHg 64%
    02:00 +14°C° 0 mm 4 mps 756 mmHg 65%
    03:00 +14°C° 0 mm 3 mps 756 mmHg 66%
    04:00 +14°C° 0 mm 4 mps 756 mmHg 68%
    05:00 +14°C° 0 mm 4 mps 756 mmHg 70%
    06:00 +14°C° 0 mm 4 mps 757 mmHg 72%
    07:00 +17°C° 0 mm 4 mps 757 mmHg 67%
    08:00 +19°C° 0 mm 4 mps 757 mmHg 62%
    09:00 +21°C° 0 mm 4 mps 758 mmHg 57%
    10:00 +22°C° 0 mm 4 mps 758 mmHg 53%
    11:00 +23°C° 0 mm 4 mps 758 mmHg 49%
    12:00 +23°C° 0 mm 4 mps 758 mmHg 46%
    13:00 +23°C° 0 mm 4 mps 758 mmHg 45%
    14:00 +25°C° 0 mm 4 mps 758 mmHg 44%
    15:00 +25°C° 0 mm 4 mps 758 mmHg 44%
    16:00 +23°C° 0 mm 4 mps 758 mmHg 46%
    17:00 +22°C° 0 mm 4 mps 758 mmHg 49%
    18:00 +21°C° 0 mm 4 mps 758 mmHg 52%
    19:00 +20°C° 0 mm 3 mps 758 mmHg 53%
    20:00 +18°C° 0 mm 3 mps 758 mmHg 54%
    21:00 +16°C° 0 mm 3 mps 759 mmHg 55%
    22:00 +14°C° 0 mm 3 mps 759 mmHg 54%
    23:00 +15°C° 0 mm 2 mps 759 mmHg 53%

    Day after tomorrow, 21 May, Tuesday

    Time Temperature Precipitation Wind Pressure Humidity
    00:00 +14°C° 0 mm 2 mps 759 mmHg 52%
    01:00 +14°C° 0 mm 2 mps 759 mmHg 56%
    02:00 +12°C° 0 mm 3 mps 759 mmHg 60%
    03:00 +12°C° 0 mm 3 mps 760 mmHg 63%
    04:00 +12°C° 0 mm 3 mps 760 mmHg 66%
    05:00 +12°C° 0 mm 3 mps 760 mmHg 68%
    06:00 +12°C° 0 mm 3 mps 760 mmHg 70%
    07:00 +14°C° 0 mm 3 mps 760 mmHg 63%
    08:00 +18°C° 0 mm 3 mps 760 mmHg 55%
    09:00 +20°C° 0 mm 3 mps 761 mmHg 48%
    10:00 +21°C° 0 mm 3 mps 761 mmHg 45%
    11:00 +22°C° 0 mm 4 mps 761 mmHg 43%
    12:00 +23°C° 0 mm 4 mps 760 mmHg 41%
    13:00 +23°C° 0 mm 4 mps 760 mmHg 41%
    14:00 +23°C° 0 mm 4 mps 760 mmHg 40%
    15:00 +25°C° 0 mm 4 mps 760 mmHg 40%
    16:00 +23°C° 0 mm 4 mps 759 mmHg 44%
    17:00 +24°C° 0 mm 3 mps 759 mmHg 48%
    18:00 +22°C° 0 mm 3 mps 759 mmHg 52%
    19:00 +20°C° 0 mm 3 mps 759 mmHg 55%
    20:00 +18°C° 0 mm 3 mps 759 mmHg 57%
    21:00 +16°C° 0 mm 3 mps 759 mmHg 60%
    22:00 +15°C° 0 mm 4 mps 759 mmHg 58%
    23:00 +14°C° 0 mm 4 mps 758 mmHg 56%

    22 May, Wednesday

    Time Temperature Precipitation Wind Pressure Humidity
    00:00 +14°C° 0 mm 4 mps 758 mmHg 54%
    01:00 +13°C° 0 mm 4 mps 758 mmHg 55%
    02:00 +13°C° 0 mm 4 mps 758 mmHg 56%
    03:00 +13°C° 0 mm 4 mps 757 mmHg 58%
    04:00 +13°C° 0 mm 4 mps 757 mmHg 62%
    05:00 +13°C° 0 mm 4 mps 757 mmHg 66%
    06:00 +13°C° 0 mm 4 mps 757 mmHg 71%
    07:00 +14°C° 0 mm 5 mps 757 mmHg 66%
    08:00 +15°C° 0 mm 5 mps 757 mmHg 62%
    09:00 +17°C° 0 mm 6 mps 757 mmHg 58%
    10:00 +19°C° 0 mm 6 mps 757 mmHg 54%
    11:00 +20°C° 0 mm 6 mps 756 mmHg 49%
    12:00 +21°C° 0 mm 6 mps 756 mmHg 45%
    13:00 +22°C° 0 mm 6 mps 756 mmHg 46%
    14:00 +22°C° 0 mm 6 mps 755 mmHg 47%
    15:00 +22°C° 0 mm 5 mps 755 mmHg 49%
    16:00 +21°C° 0.1 mm 5 mps 755 mmHg 59%
    17:00 +20°C° 0.1 mm 4 mps 754 mmHg 69%
    18:00 +19°C° 0.1 mm 3 mps 754 mmHg 79%
    19:00 +18°C° 0.1 mm 3 mps 754 mmHg 84%
    20:00 +17°C° 0.1 mm 3 mps 754 mmHg 89%
    21:00 +16°C° 0.1 mm 3 mps 754 mmHg 94%
    22:00 +16°C° 0 mm 3 mps 754 mmHg 95%
    23:00 +16°C° 0 mm 3 mps 753 mmHg 95%

    23 May, Thursday

    Time Temperature Precipitation Wind Pressure Humidity
    00:00 +14°C° 0 mm 3 mps 753 mmHg 96%
    01:00 +14°C° 0.3 mm 3 mps 753 mmHg 96%
    02:00 +14°C° 0.3 mm 3 mps 753 mmHg 97%
    03:00 +14°C° 0.3 mm 3 mps 752 mmHg 97%
    04:00 +14°C° 0.3 mm 3 mps 752 mmHg 96%
    05:00 +16°C° 0.3 mm 3 mps 752 mmHg 96%
    06:00 +16°C° 0.3 mm 3 mps 752 mmHg 95%
    07:00 +17°C° 0.1 mm 3 mps 752 mmHg 92%
    08:00 +17°C° 0.1 mm 3 mps 752 mmHg 90%
    09:00 +18°C° 0.1 mm 3 mps 752 mmHg 87%
    10:00 +20°C° 0 mm 4 mps 752 mmHg 77%
    11:00 +22°C° 0 mm 5 mps 752 mmHg 66%
    12:00 +25°C° 0 mm 5 mps 752 mmHg 56%
    13:00 +24°C° 0 mm 6 mps 752 mmHg 54%
    14:00 +26°C° 0 mm 6 mps 751 mmHg 51%
    15:00 +26°C° 0 mm 7 mps 751 mmHg 49%
    16:00 +24°C° 0 mm 6 mps 751 mmHg 52%
    17:00 +24°C° 0 mm 6 mps 751 mmHg 55%
    18:00 +23°C° 0 mm 5 mps 751 mmHg 58%
    19:00 +21°C° 0 mm 5 mps 751 mmHg 63%
    20:00 +20°C° 0 mm 4 mps 751 mmHg 68%
    21:00 +18°C° 0 mm 4 mps 752 mmHg 73%
    22:00 +17°C° 0.3 mm 4 mps 751 mmHg 75%
    23:00 +17°C° 0.3 mm 4 mps 751 mmHg 77%

    24 May, Friday

    Time Temperature Precipitation Wind Pressure Humidity
    00:00 +17°C° 0.3 mm 4 mps 751 mmHg 79%
    01:00 +16°C° 0 mm 5 mps 751 mmHg 80%
    02:00 +16°C° 0 mm 5 mps 751 mmHg 81%
    03:00 +16°C° 0 mm 5 mps 751 mmHg 81%
    04:00 +16°C° 0 mm 5 mps 751 mmHg 82%
    05:00 +17°C° 0 mm 4 mps 751 mmHg 84%
    06:00 +17°C° 0 mm 4 mps 751 mmHg 85%
    07:00 +17°C° 0.1 mm 5 mps 751 mmHg 79%
    08:00 +20°C° 0.1 mm 5 mps 752 mmHg 73%
    09:00 +22°C° 0.1 mm 5 mps 752 mmHg 67%
    10:00 +23°C° 1.1 mm 6 mps 752 mmHg 64%
    11:00 +23°C° 1.1 mm 6 mps 752 mmHg 62%
    12:00 +24°C° 1.1 mm 6 mps 752 mmHg 59%
    13:00 +26°C° 0.5 mm 6 mps 751 mmHg 57%
    14:00 +26°C° 0.5 mm 6 mps 751 mmHg 54%
    15:00 +27°C° 0.5 mm 6 mps 751 mmHg 51%
    16:00 +26°C° 0 mm 5 mps 751 mmHg 54%
    17:00 +26°C° 0 mm 4 mps 751 mmHg 57%
    18:00 +26°C° 0 mm 3 mps 751 mmHg 59%
    19:00 +24°C° 0 mm 3 mps 751 mmHg 63%
    20:00 +21°C° 0 mm 2 mps 751 mmHg 66%
    21:00 +19°C° 0 mm 2 mps 751 mmHg 70%
    22:00 +20°C° 0 mm 1 mps 751 mmHg 72%
    23:00 +19°C° 0 mm 1 mps 751 mmHg 73%
    Show more